DECAYED
Showing default

DISCO-1, 56222 (Decayed)

Orbit data source: Space-Track

DISCO-1, 56222 was a payload satellite owned by Aarhus U. (DK) in LEO that was launched on Sat, 15 Apr 2023 UTC via an FALCON 9 launch vehicle from the Air Force Western Test Range (AFWTR). Payload-class satellites include a variety of spacecraft equipped with specific instruments for various scientific and technological missions. These include communications satellites like Starlink; space stations such as the ISS; scientific satellites like the Hubble; Earth observation satellites from companies like Planet Labs, Umbra, and HawkEye 360; GPS; miniature CubeSats for education and research; and military/defense satellites.

Not visible in the next 10 days
Identifier
56222, 2023-054AW
Orbit
Decayed
Country
Flag of DKDK / DEN
Related business
Flag of DKAarhus University (DK)
Manufacturer
Aarhus U.
Mission
Decayed Amateur Communications
Bus & Motor
CUBESAT 1U, Unknown motor
Mass
1 kg wet, 1 kg dry
Launch date (UTC)
2023-04-15 (3 years ago)
Launch vehicle
FALCON 9
Launch site
Air Force Western Test Range (AFWTR)
Object type
Payload
Rocket body
Debris
Shape & HBR
Box, 0.1 m
Radar Cross Section
0.015 m², Small (<0.1 m²)

Expand to show TLE details & history
Last TLE update: 1 year ago

TLE from 1 year ago
0 DISCO-1
1 56222U 23054AW  25023.68027703  .06010158  24376-5  10736-2 0  9993
2 56222  97.3175 294.2859 0003593  86.0544 274.1163 16.32681433100470
Epoch: 2025-01-23T16:19Z
TLE epoch observation values (Epoch: 2025-01-23T16:19:35.935Z)
Latitude
0.00003°
Longitude
-73.86816°
Altitude
188.419 km
Speed
7.793 km/s
True Right ascension
19h 37m 08s
True Declination
0° 00' 00"
Sunlit
Object was in daylight at epoch
Visualization orbit readout
Latitude
Unknown
Longitude
Unknown
Altitude
Unknown
Speed
Unknown
Apparent Right ascension
Unknown
Apparent Declination
Unknown
Sunlit
N/A
Visualization observer readout
Local Sidereal Time
00:17:34
Azimuth
Unknown
Elevation
Unknown
Doppler factor
Unknown
Orbital elements
Apogee altitude
184.514 km
Perigee altitude
179.8 km
Semi-major axis
6,560.294 km
Eccentricity
0.00036
Inclination
97.3175°
RAAN
294.2859°
Arg. of periapsis
86.0544°
True anomaly
274.07523°
Mean anomaly
274.1163°
Eccentric anomaly
274.09577°
Mean motion
4.08468 °/min
Orbital period
88.13 mins
BSTAR
0.0010736
Loading maneuver chart data...
Computing Atmospheric mass density...
Loading historical data...
Loading historical data...
Loading historical data...
Loading historical data...
Loading historical data...
Loading historical data...
Loading historical data...

Documentation

Showing up to 5 results
|